Location: Home
(42.5358°N, 72.7383°W)
Time: 11:42:12
(UTC-04:00)

SL-08 R/B - Visible Passes

Search period start: 01 October 2022 00:00
Search period end: 11 October 2022 00:00
Orbit: 943 x 1008 km, 82.9° (Epoch: 30 September)

Date Brightness Start Highest point End Pass type
(mag) Time Alt. Az. Time Alt. Az. Time Alt. Az.
01 Oct 7.3 03:53:03 10° ESE 03:55:38 13° ENE 03:58:14 10° NE visible
01 Oct 4.4 05:33:58 10° S 05:40:03 88° W 05:46:13 10° N visible
02 Oct 6.6 04:15:54 10° SE 04:20:39 24° E 04:25:26 10° NNE visible
02 Oct 4.6 05:59:45 10° SSW 06:05:37 50° WNW 06:11:34 10° N visible
03 Oct 5.5 04:40:08 10° SSE 04:45:50 44° E 04:51:36 10° NNE visible
04 Oct 7.3 03:25:35 10° E 03:26:55 11° ENE 03:28:16 10° ENE visible
04 Oct 4.5 05:05:07 10° S 05:11:11 80° E 05:17:21 10° N visible
05 Oct 6.7 03:47:30 10° SE 03:51:53 21° E 03:56:17 10° NE visible
05 Oct 4.5 05:30:45 10° SSW 05:36:42 58° W 05:42:47 10° N visible
06 Oct 5.7 04:11:29 10° SSE 04:17:01 38° E 04:22:37 10° NNE visible
06 Oct 5.1 05:57:03 10° SW 06:02:25 32° WNW 06:07:55 10° N visible
07 Oct 4.7 04:36:18 10° S 04:42:19 69° E 04:48:27 10° NNE visible
07 Oct 5.7 06:24:13 10° WSW 06:28:20 18° WNW 06:32:31 10° NNW visible
08 Oct 6.8 03:19:12 10° ESE 03:23:08 18° E 03:27:05 10° NE visible
08 Oct 4.3 05:02:57 16° SSW 05:07:49 67° W 05:13:58 10° N visible
09 Oct 5.9 03:45:00 20° SE 03:48:13 33° E 03:53:37 10° NNE visible
09 Oct 4.9 05:29:45 19° SW 05:33:28 37° WNW 05:39:11 10° N visible
10 Oct 4.9 04:11:33 41° SSE 04:13:29 60° E 04:19:33 10° NNE visible
10 Oct 5.6 05:56:17 15° WSW 05:59:20 21° WNW 06:03:58 10° NNW visible
